Vero Beach, FL

4:17 PM EDT on September 28, 2016 (GMT -0400)
Vero Beach Municipal

Weather History for KVRB - November, 2012

Change the Weather History Date:

Thursday, November 8, 2012

  Actual Average Record
Temperature  
Mean Temperature 59 °F 72 °F  
Max Temperature 69 °F 80 °F 89 °F (1996)
Min Temperature 48 °F 63 °F 45 °F (1951)
Degree Days  
Heating Degree Days 6 0  
Month to date heating degree days 12 0  
Since 1 July heating degree days 29 3  
Cooling Degree Days 0 7  
Month to date cooling degree days 14 61  
Year to date cooling degree days 3359 3189  
Growing Degree Days 8 (Base 50)    
Moisture  
Dew Point 46 °F    
Average Humidity 63    
Maximum Humidity 86    
Minimum Humidity 40    
Precipitation  
Precipitation 0.00 in 0.12 in 1.86 in (2003)
Month to date precipitation 0.00 0.95  
Year to date precipitation 45.54 47.35  
Sea Level Pressure  
Sea Level Pressure 30.08 in    
Wind  
Wind Speed 11 mph (NW)    
Max Wind Speed 18 mph    
Max Gust Speed 25 mph    
Visibility 10 miles    
Events      
T = Trace of Precipitation, MM = Missing Value Source: NWS Daily Summary

Daily Weather History Graph

Daily Weather History Graph

Search for Another Location

Airport or City:

Trip Planner

Search our weather history database for the weather conditions in past years. The results will help you decide how hot, cold, wet, or windy it might be!

Date:

Astronomy

Nov. 08, 2012 Rise Set
Actual Time 6:37 AM EST 5:32 PM EST
Civil Twilight 6:13 AM EST 5:57 PM EST
Nautical Twilight 5:45 AM EST 6:25 PM EST
Astronomical Twilight 5:17 AM EST 6:52 PM EST
Moon 1:01 AM EST (11/8) 1:46 PM EST (11/8)
Length of Visible Light 11h 43m
Length of Day
10h 55m
Waning Crescent, 33% of the Moon is Illuminated
Nov 8
Waning Crescent
Nov 13
New
Nov 20
First Quarter
Nov 28
Full
Dec 6
Last Quarter

Hourly Weather History & Observations

Time (EST) Temp. Dew Point Humidity Pressure Visibility Wind Dir Wind Speed Gust Speed Precip Events Conditions
12:53 AM 51.1 °F 46.0 °F 83% 29.99 in 10.0 mi West 3.5 mph - N/A   Clear
1:53 AM 50.0 °F 46.0 °F 86% 29.99 in 10.0 mi WNW 6.9 mph - N/A   Clear
2:53 AM 52.0 °F 46.9 °F 83% 29.98 in 10.0 mi NW 8.1 mph - N/A   Overcast
3:53 AM 50.0 °F 46.0 °F 86% 30.00 in 10.0 mi WNW 8.1 mph - N/A   Mostly Cloudy
4:53 AM 51.1 °F 46.0 °F 83% 30.02 in 10.0 mi NNW 9.2 mph - N/A   Scattered Clouds
6:53 AM 48.9 °F 44.1 °F 83% 30.06 in 10.0 mi NW 6.9 mph - N/A   Clear
7:53 AM 52.0 °F 44.1 °F 74% 30.08 in 10.0 mi NW 9.2 mph - N/A   Clear
8:53 AM 57.0 °F 43.0 °F 59% 30.10 in 10.0 mi NW 12.7 mph 19.6 mph N/A   Clear
9:53 AM 61.0 °F 41.0 °F 48% 30.12 in 10.0 mi NNW 15.0 mph 21.9 mph N/A   Unknown
10:53 AM 64.0 °F 39.9 °F 41% 30.12 in 10.0 mi NW 17.3 mph 23.0 mph N/A   Clear
11:53 AM 64.0 °F 43.0 °F 46% 30.10 in 10.0 mi NW 13.8 mph 19.6 mph N/A   Clear
12:53 PM 66.9 °F 42.1 °F 40% 30.08 in 10.0 mi NNW 10.4 mph 19.6 mph N/A   Clear
1:53 PM 68.0 °F 44.1 °F 42% 30.07 in 10.0 mi North 17.3 mph - N/A   Clear
2:53 PM 66.9 °F 48.9 °F 52% 30.07 in 10.0 mi North 15.0 mph 21.9 mph N/A   Clear
3:53 PM 64.9 °F 48.9 °F 56% 30.08 in 10.0 mi NNW 13.8 mph 23.0 mph N/A   Partly Cloudy
4:53 PM 64.0 °F 48.0 °F 56% 30.09 in 10.0 mi NNW 12.7 mph - N/A   Clear
5:53 PM 60.1 °F 48.0 °F 64% 30.10 in 10.0 mi NNW 9.2 mph - N/A   Clear
6:53 PM 57.9 °F 46.9 °F 67% 30.12 in 10.0 mi NW 9.2 mph - N/A   Clear
7:53 PM 55.9 °F 48.0 °F 75% 30.12 in 10.0 mi NW 10.4 mph - N/A   Clear
8:53 PM 55.9 °F 48.9 °F 77% 30.14 in 10.0 mi NNW 9.2 mph - N/A   Clear
9:53 PM 55.9 °F 48.0 °F 75% 30.15 in 10.0 mi NW 8.1 mph - N/A   Clear
10:53 PM 55.9 °F 46.0 °F 69% 30.15 in 10.0 mi NW 10.4 mph - N/A   Clear
11:53 PM 55.9 °F 46.0 °F 69% 30.15 in 10.0 mi NNW 11.5 mph - N/A   Clear